Regional Weather Roundup
Issued by NWS

Home | Current Version | Previous Version | Graphics & Text | Print | Product List | Glossary On
Versions: 1 2 3 4 5 6 7 8 9 10 11 12 13 14 15 16 17 18 19 20 21 22 23 24 25 26 27 28 29 30 31 32 33 34 35 36 37 38 39 40 41 42 43 44 45 46 47 48 49 50
000
ASUS43 KLMK 280202
RWRKY
KENTUCKY REGIONAL WEATHER ROUNDUP
NATIONAL WEATHER SERVICE LOUISVILLE KY
1000 PM EDT MON MAR 27 2017

NOTE "FAIR" INDICATES FEW OR NO CLOUDS BELOW 12,000 FEET
WITH NO SIGNIFICANT WEATHER AND/OR OBSTRUCTIONS TO VISIBILITY.

KYZ001>023-026-027-061>063-070>075-280300-
WESTERN AND SOUTH CENTRAL KENTUCKY

CITY           SKY/WX    TMP DP  RH WIND       PRES   REMARKS
PADUCAH        CLEAR     53  50  89 SW3       29.85R
HENDERSON      CLOUDY    57  52  82 SW5       29.84R
OWENSBORO      MOCLDY    56  54  93 SW3       29.85R
HOPKINSVILLE   MOCLDY    57  57 100 NW5       29.85R
BOWLING GREEN  CLOUDY    59  56  89 S3        29.86R
GLASGOW        NOT AVBL
$$

KYZ024-025-028>034-038-045-046-053-280300-
NORTH CENTRAL KENTUCKY

CITY           SKY/WX    TMP DP  RH WIND       PRES   REMARKS
LOUISVILLE/SDF CLOUDY    58  54  86 S8        29.85R
LOUISVILLE/LOU CLOUDY    58  54  86 S3        29.85R
FORT KNOX      CLOUDY    55  55 100 CALM      29.84R
$$

KYZ035>037-039>044-047>052-055>060-089>105-280300-
NORTHEAST KENTUCKY

CITY           SKY/WX    TMP DP  RH WIND       PRES   REMARKS
LEXINGTON      CLOUDY    56  53  90 S8        29.89F
COVINGTON      LGT RAIN  58  57  97 S8        29.84F
FRANKFORT      CLOUDY    56  53  90 SE5       29.85R
$$

KYZ054-064>069-076>088-106>120-280300-
SOUTHEAST KENTUCKY

CITY           SKY/WX    TMP DP  RH WIND       PRES   REMARKS
JACKSON        RAIN      55  53  93 W6        29.97F FOG
LONDON         CLOUDY    57  53  86 CALM      29.96S
SOMERSET       CLOUDY    54  54 100 CALM      29.94F
MIDDLESBORO    RAIN      59  57  92 E3        29.98S
MONTICELLO     LGT RAIN  57  56  96 W15       29.97R
$$





USA.gov is the U.S. government's official web portal to all federal, state and local government web resources and services.